Location: ????
(30.1475°N, 31.1342°E)
Time: 14:53:48
(UTC+00:00)

Cosmos 1605 Rocket - Pass Details

Date: 07 April 2023
Orbit: 943 x 1006 km, 82.9° (Epoch: 28 May)

Event Time Altitude Azimuth Distance (km) Brightness Sun altitude
Rises 02:58:53 0° 176° (S) 3,684 6.9 -9.2°
Reaches altitude 10° 03:01:24 10° 173° (S) 2,746 6.3 -8.7°
Maximum altitude 03:07:38 65° 93° (E) 1,092 4.6 -7.3°
Drops below altitude 10° 03:13:58 10° 12° (NNE) 2,784 6.7 -6.0°
Sets 03:16:32 0° 10° (N) 3,738 7.4 -5.5°
